LRCK Weather Reports


Display with metric or nautical units.
time (UTC)temp
F
wind
direction
speed
MPH
gust
MPH
rain 1hr
in
rain 24hr
in
rain mn
in
humidity
%
barometer
mb
20260903163317 75 120 5.0 0.0 0.00 0.00 0.00 74 1015.0
20260903161817 77 110 7.0 0.0 0.00 0.00 0.00 69 1016.0
20260903160318 77 110 7.0 0.0 0.00 0.00 0.00 69 1016.0
20260903154818 77 110 8.0 0.0 0.00 0.00 0.00 65 1015.0
20260903153318 77 110 8.0 0.0 0.00 0.00 0.00 65 1015.0
20260903151818 79 110 10.0 0.0 0.00 0.00 0.00 65 1015.0
20260903150318 79 110 10.0 0.0 0.00 0.00 0.00 65 1015.0
20260903144817 81 110 10.0 0.0 0.00 0.00 0.00 54 1015.0
20260903143318 81 110 10.0 0.0 0.00 0.00 0.00 54 1015.0
20260903141818 81 110 10.0 0.0 0.00 0.00 0.00 54 1015.0
20260903140317 81 110 10.0 0.0 0.00 0.00 0.00 54 1015.0
20260903134818 82 80 9.0 0.0 0.00 0.00 0.00 51 1015.0
20260903133317 82 80 9.0 0.0 0.00 0.00 0.00 51 1015.0
20260903131817 82 90 10.0 0.0 0.00 0.00 0.00 51 1016.0
20260903130318 82 90 10.0 0.0 0.00 0.00 0.00 51 1016.0
20260903124817 81 90 11.0 0.0 0.00 0.00 0.00 58 1016.0
20260903123328 81 90 11.0 0.0 0.00 0.00 0.00 58 1016.0
20260903121817 82 100 13.0 0.0 0.00 0.00 0.00 55 1016.0
20260903120318 82 100 13.0 0.0 0.00 0.00 0.00 55 1016.0
20260903114818 81 100 9.0 0.0 0.00 0.00 0.00 62 1016.0
20260903113317 81 100 9.0 0.0 0.00 0.00 0.00 62 1016.0
20260903111819 81 80 9.0 0.0 0.00 0.00 0.00 54 1016.0
20260903110317 81 80 9.0 0.0 0.00 0.00 0.00 54 1016.0
20260903104817 82 70 9.0 0.0 0.00 0.00 0.00 55 1016.0
20260903103317 82 70 9.0 0.0 0.00 0.00 0.00 55 1016.0
20260903101818 84 40 7.0 0.0 0.00 0.00 0.00 48 1016.0
20260903100318 84 40 7.0 0.0 0.00 0.00 0.00 48 1016.0
20260903094817 82 5.0 0.0 0.00 0.00 0.00 48 1017.0
20260903093317 82 5.0 0.0 0.00 0.00 0.00 48 1017.0
20260903091834 82 3.0 0.0 0.00 0.00 0.00 51 1017.0
20260903090333 82 3.0 0.0 0.00 0.00 0.00 51 1017.0
20260903084817 79 20 6.0 0.0 0.00 0.00 0.00 54 1017.0
20260903083317 79 20 6.0 0.0 0.00 0.00 0.00 54 1017.0
20260903081817 79 110 5.0 0.0 0.00 0.00 0.00 58 1017.0
20260903080317 79 110 5.0 0.0 0.00 0.00 0.00 58 1017.0
20260903074818 77 90 6.0 0.0 0.00 0.00 0.00 57 1017.0
20260903073317 77 90 6.0 0.0 0.00 0.00 0.00 57 1017.0
20260903071817 75 2.0 0.0 0.00 0.00 0.00 61 1017.0
20260903070317 75 2.0 0.0 0.00 0.00 0.00 61 1017.0
20260903064817 73 40 3.0 0.0 0.00 0.00 0.00 65 1017.0
20260903063317 73 40 3.0 0.0 0.00 0.00 0.00 65 1017.0
20260903061817 75 10 5.0 0.0 0.00 0.00 0.00 65 1017.0
20260903060322 75 10 5.0 0.0 0.00 0.00 0.00 65 1017.0
20260903054822 72 10 6.0 0.0 0.00 0.00 0.00 73 1017.0
20260903053317 72 10 6.0 0.0 0.00 0.00 0.00 73 1017.0
20260903051818 70 330 3.0 0.0 0.00 0.00 0.00 73 1017.0
20260903050319 70 330 3.0 0.0 0.00 0.00 0.00 73 1017.0
20260903044817 68 290 6.0 0.0 0.00 0.00 0.00 78 1017.0
20260903043317 68 290 6.0 0.0 0.00 0.00 0.00 78 1017.0
20260903041817 66 350 5.0 0.0 0.00 0.00 0.00 78 1017.0
20260903040317 66 350 5.0 0.0 0.00 0.00 0.00 78 1017.0
20260903034817 66 280 5.0 0.0 0.00 0.00 0.00 78 1016.0
20260903033317 66 280 5.0 0.0 0.00 0.00 0.00 78 1016.0
20260903031817 66 330 7.0 0.0 0.00 0.00 0.00 83 1016.0
20260903030425 66 330 7.0 0.0 0.00 0.00 0.00 83 1016.0
20260903024925 68 330 5.0 0.0 0.00 0.00 0.00 78 1016.0
20260903023405 68 330 5.0 0.0 0.00 0.00 0.00 78 1016.0
20260903021816 68 320 8.0 0.0 0.00 0.00 0.00 78 1017.0
20260903020432 68 320 8.0 0.0 0.00 0.00 0.00 78 1017.0
20260903014818 66 330 6.0 0.0 0.00 0.00 0.00 83 1017.0
20260903013316 66 330 6.0 0.0 0.00 0.00 0.00 83 1017.0
20260903011817 64 320 7.0 0.0 0.00 0.00 0.00 88 1017.0
20260903010317 64 320 7.0 0.0 0.00 0.00 0.00 88 1017.0
20260903004818 66 320 6.0 0.0 0.00 0.00 0.00 88 1017.0
20260903003317 66 320 6.0 0.0 0.00 0.00 0.00 88 1017.0
20260903001817 66 320 7.0 0.0 0.00 0.00 0.00 88 1017.0
20260903000318 66 320 7.0 0.0 0.00 0.00 0.00 88 1017.0
20260902234817 66 270 7.0 0.0 0.00 0.00 0.00 88 1017.0
20260902233317 66 270 7.0 0.0 0.00 0.00 0.00 88 1017.0
20260902231818 66 270 6.0 0.0 0.00 0.00 0.00 88 1017.0
20260902230316 66 270 6.0 0.0 0.00 0.00 0.00 88 1017.0
20260902224817 66 250 5.0 0.0 0.00 0.00 0.00 88 1017.0
20260902223317 66 250 5.0 0.0 0.00 0.00 0.00 88 1017.0
20260902221817 66 220 3.0 0.0 0.00 0.00 0.00 88 1017.0
20260902220317 66 220 3.0 0.0 0.00 0.00 0.00 88 1017.0
20260902214817 64 170 5.0 0.0 0.00 0.00 0.00 94 1017.0
20260902213317 64 170 5.0 0.0 0.00 0.00 0.00 94 1017.0
20260902211818 66 160 3.0 0.0 0.00 0.00 0.00 94 1017.0
20260902210317 66 160 3.0 0.0 0.00 0.00 0.00 94 1017.0
20260902204817 68 170 3.0 0.0 0.00 0.00 0.00 88 1017.0
20260902203317 68 170 3.0 0.0 0.00 0.00 0.00 88 1017.0
20260902201817 68 180 5.0 0.0 0.00 0.00 0.00 88 1017.0
20260902200333 68 180 5.0 0.0 0.00 0.00 0.00 88 1017.0
20260902194817 68 160 5.0 0.0 0.00 0.00 0.00 88 1017.0
20260902193317 68 160 5.0 0.0 0.00 0.00 0.00 88 1017.0
20260902191817 68 160 5.0 0.0 0.00 0.00 0.00 88 1018.0
20260902190317 68 160 5.0 0.0 0.00 0.00 0.00 88 1018.0
20260902184818 70 170 3.0 0.0 0.00 0.00 0.00 83 1018.0
20260902183317 70 170 3.0 0.0 0.00 0.00 0.00 83 1018.0
20260902181817 70 140 5.0 0.0 0.00 0.00 0.00 88 1017.0
20260902180317 70 140 5.0 0.0 0.00 0.00 0.00 88 1017.0
20260902174818 70 110 3.0 0.0 0.00 0.00 0.00 88 1017.0
20260902173317 70 110 3.0 0.0 0.00 0.00 0.00 88 1017.0
20260902171817 72 110 6.0 0.0 0.00 0.00 0.00 83 1017.0
20260902170317 72 110 6.0 0.0 0.00 0.00 0.00 83 1017.0
20260902164932 75 130 7.0 0.0 0.00 0.00 0.00 74 1017.0